Location: Tabor
(49.4170°N, 14.6670°E)
Time: 11:03:00
(UTC+02:00)

ISS - Pass Details

Date: 22 May 2021
Orbit: 417 x 422 km, 51.6° (Epoch: 13 June)

Event Time Altitude Azimuth Distance (km) Brightness Sun altitude
Rises 21:20:27 0° 264° (W) 2,360 0.8 -5.0°
Reaches altitude 10° 21:22:33 10° 268° (W) 1,498 -0.2 -5.3°
Maximum altitude 21:25:54 63° 351° (N) 472 -3.2 -5.7°
Drops below altitude 10° 21:29:15 10° 73° (ENE) 1,503 -1.2 -6.1°
Sets 21:31:22 0° 77° (ENE) 2,369 -0.3 -6.4°
